Orbital Elements at Epoch 2459000.5 (2020-May-31.0) TDB
Reference: JPL 25 (heliocentric ecliptic J2000)
Element | Value | Uncertainty (1-sigma) | Units |
e | .07563713688629825 | 3.5922e-08 | |
a | 3.062424897210852 | 1.7227e-08 | au |
q | 2.830791846056507 | 1.0526e-07 | au |
i | 2.889906761464764 | 4.5258e-06 | deg |
node | 162.351355626638 | 7.9605e-05 | deg |
peri | 297.8186162659599 | 8.5778e-05 | deg |
M | 160.196821989484 | 3.3504e-05 | deg |
tp | 2458129.440157001944 (2018-Jan-10.94015700) | 0.00017935 | TDB |
period | 1957.476681403112 5.36 | 1.6517e-05 4.522e-08 | d yr |
n | .1839102367962582 | 1.5518e-09 | deg/d |
Q | 3.294057948365197 | 1.853e-08 | au |
|
| | Orbit Determination Parameters
Additional Information
|